Weather History for KMSS - January, 2013

Change the Weather History Date:

Monday, January 14, 2013

  Actual Average Record
Temperature  
Mean Temperature 39 °F 14 °F  
Max Temperature 46 °F 24 °F 56 °F (1950)
Min Temperature 31 °F 4 °F -40 °F (1957)
Degree Days  
Heating Degree Days 26 51  
Month to date heating degree days 587 701  
Since 1 July heating degree days 3373 3800  
Cooling Degree Days 0 0  
Month to date cooling degree days 0  
Year to date cooling degree days 0  
Moisture  
Dew Point 34 °F    
Average Humidity 80    
Maximum Humidity 100    
Minimum Humidity 59    
Precipitation  
Precipitation 0.07 in 0.07 in 1.07 in (1992)
Month to date precipitation 0.52 1.05  
Year to date precipitation 0.52 1.05  
Sea Level Pressure  
Sea Level Pressure 30.00 in    
Wind  
Wind Speed 10 mph (WSW)    
Max Wind Speed 23 mph    
Max Gust Speed 30 mph    
Visibility 8 miles    
Events Fog , Rain    
T = Trace of Precipitation, MM = Missing Value Source: NWS Daily Summary

Daily Weather History Graph

Daily Weather History Graph

Search for Another Location

Airport or City:

Trip Planner

Search our weather history database for the weather conditions in past years. The results will help you decide how hot, cold, wet, or windy it might be!

Date:

Astronomy

Jan. 14, 2013 Rise Set
Actual Time 7:34 AM EST 4:43 PM EST
Civil Twilight 7:01 AM EST 5:16 PM EST
Nautical Twilight 6:25 AM EST 5:52 PM EST
Astronomical Twilight 5:49 AM EST 6:27 PM EST
Moon 8:56 AM EST (1/14) 8:37 PM EST (1/14)
Length of Visible Light 10h 14m
Length of Day
9h 09m
Waxing Crescent, 11% of the Moon is Illuminated
Jan 14
Waxing Crescent
Jan 18
First Quarter
Jan 26
Full
Feb 3
Last Quarter
Feb 10
New

Hourly Weather History & Observations

Time (EST) Temp. Windchill Dew Point Humidity Pressure Visibility Wind Dir Wind Speed Gust Speed Precip Events Conditions
12:33 AM 37.4 °F - 37.4 °F 100% 29.76 in 0.2 mi Calm Calm - N/A Fog Fog
12:53 AM 37.9 °F - 37.0 °F 97% 29.77 in 0.2 mi Calm Calm - N/A Fog Fog
1:03 AM 37.4 °F - 37.4 °F 100% 29.75 in 0.2 mi Calm Calm - N/A Fog Fog
1:53 AM 39.0 °F - 39.0 °F 100% 29.72 in 0.2 mi Calm Calm - N/A Fog Fog
2:21 AM 37.4 °F - 37.4 °F 100% 29.71 in 0.2 mi Calm Calm - N/A Fog Fog
2:53 AM 36.0 °F - 36.0 °F 100% 29.71 in 0.2 mi Calm Calm - N/A Fog Fog
3:53 AM 37.0 °F 34.5 °F 37.0 °F 100% 29.71 in 0.5 mi SSW 3.5 mph - N/A Fog Fog
4:21 AM 46.4 °F 39.0 °F 44.6 °F 93% 29.77 in 1.0 mi West 19.6 mph 27.6 mph 0.05 in Rain Heavy Rain
4:24 AM 44.6 °F 36.6 °F 44.6 °F 100% 29.77 in 1.5 mi West 19.6 mph 27.6 mph 0.05 in Rain Rain
4:28 AM 46.4 °F 38.5 °F 44.6 °F 93% 29.77 in 3.0 mi West 21.9 mph 27.6 mph 0.05 in Rain Light Rain
4:49 AM 44.6 °F 38.1 °F 44.6 °F 100% 29.79 in 8.0 mi West 13.8 mph 24.2 mph 0.06 in   Overcast
4:53 AM 45.0 °F 37.9 °F 44.1 °F 97% 29.81 in 8.0 mi West 16.1 mph 24.2 mph 0.06 in Rain Light Rain
5:10 AM 44.6 °F 39.7 °F 44.6 °F 100% 29.79 in 6.0 mi WSW 9.2 mph - 0.01 in Rain Light Rain
5:28 AM 44.6 °F 40.7 °F 42.8 °F 93% 29.82 in 10.0 mi WSW 6.9 mph - 0.01 in   Overcast
5:39 AM 44.6 °F 40.7 °F 42.8 °F 93% 29.82 in 8.0 mi WSW 6.9 mph - 0.01 in Rain Light Rain
5:53 AM 44.1 °F 37.7 °F 43.0 °F 96% 29.87 in 10.0 mi WSW 12.7 mph 19.6 mph 0.01 in Rain Light Rain
6:01 AM 44.6 °F 39.2 °F 42.8 °F 93% 29.86 in 10.0 mi WSW 10.4 mph - 0.00 in Rain Light Rain
6:53 AM 43.0 °F 36.4 °F 41.0 °F 93% 29.94 in 10.0 mi WSW 12.7 mph 19.6 mph 0.00 in   Overcast
7:13 AM 42.8 °F 35.4 °F 39.2 °F 87% 29.95 in 10.0 mi WSW 15.0 mph 23.0 mph N/A   Overcast
7:20 AM 42.8 °F 35.8 °F 39.2 °F 87% 29.96 in 10.0 mi WSW 13.8 mph - N/A   Overcast
7:45 AM 42.8 °F 35.1 °F 37.4 °F 81% 30.00 in 10.0 mi West 16.1 mph 23.0 mph N/A   Overcast
7:53 AM 41.0 °F 33.5 °F 37.0 °F 86% 30.02 in 10.0 mi West 13.8 mph 23.0 mph N/A   Overcast
8:35 AM 39.2 °F 31.2 °F 33.8 °F 81% 30.05 in 10.0 mi WSW 13.8 mph 23.0 mph N/A   Mostly Cloudy
8:53 AM 39.9 °F 31.8 °F 34.0 °F 79% 30.08 in 10.0 mi WSW 15.0 mph 21.9 mph N/A   Overcast
9:05 AM 39.2 °F 31.2 °F 33.8 °F 81% 30.08 in 10.0 mi WSW 13.8 mph 23.0 mph N/A   Overcast
9:19 AM 39.2 °F 31.6 °F 33.8 °F 81% 30.08 in 10.0 mi WSW 12.7 mph 20.7 mph N/A   Mostly Cloudy
9:53 AM 39.9 °F 30.8 °F 30.9 °F 70% 30.12 in 10.0 mi WSW 18.4 mph 25.3 mph N/A   Clear
10:53 AM 39.0 °F 30.3 °F 30.0 °F 70% 30.15 in 10.0 mi SW 16.1 mph 23.0 mph N/A   Overcast
11:53 AM 39.0 °F 31.4 °F 28.9 °F 67% 30.16 in 10.0 mi WSW 12.7 mph 23.0 mph N/A   Mostly Cloudy
12:53 PM 39.2 °F 29.6 °F 26.6 °F 61% 30.15 in 10.0 mi WSW 19.6 mph 27.6 mph N/A   Overcast
1:53 PM 37.4 °F 28.5 °F 24.8 °F 60% 30.18 in 10.0 mi WSW 15.0 mph 20.7 mph N/A   Mostly Cloudy
2:53 PM 37.9 °F 29.6 °F 25.0 °F 60% 30.23 in 10.0 mi West 13.8 mph 21.9 mph N/A   Overcast
3:53 PM 37.0 °F 29.8 °F 25.0 °F 62% 30.25 in 10.0 mi WSW 10.4 mph - N/A   Overcast
4:53 PM 35.6 °F 28.0 °F 24.8 °F 65% 30.24 in 10.0 mi WSW 10.4 mph - N/A   Overcast
5:53 PM 35.1 °F 27.4 °F 25.0 °F 67% 30.27 in 10.0 mi WSW 10.4 mph - N/A   Overcast
6:53 PM 35.1 °F 27.4 °F 25.0 °F 67% 30.29 in 10.0 mi WSW 10.4 mph - N/A   Overcast
7:53 PM 35.1 °F 27.4 °F 25.0 °F 67% 30.32 in 10.0 mi West 10.4 mph - N/A   Overcast
8:53 PM 34.0 °F 26.0 °F 24.1 °F 67% 30.31 in 10.0 mi West 10.4 mph - N/A   Overcast
9:53 PM 33.1 °F 26.9 °F 23.0 °F 66% 30.31 in 10.0 mi West 6.9 mph - N/A   Overcast
10:53 PM 32.0 °F 24.8 °F 21.9 °F 66% 30.33 in 10.0 mi WNW 8.1 mph - N/A   Overcast
11:53 PM 30.9 °F 26.2 °F 21.9 °F 69% 30.34 in 10.0 mi WSW 4.6 mph - N/A   Overcast